Location: Navalespino
(40.5894°N, 4.2660°W)
Time: 17:04:09
(UTC+00:00)

Cosmos 1825 - Pass Details

Date: 18 April 2024
Orbit: 443 x 445 km, 82.5° (Epoch: 23 May)

Event Time Altitude Azimuth Distance (km) Brightness Sun altitude
Rises 19:24:05 0° 349° (N) 2,445 6.1 -5.2°
Reaches altitude 10° 19:26:10 10° 346° (NNW) 1,570 5.2 -5.6°
Maximum altitude 19:29:33 64° 265° (W) 495 2.4 -6.2°
Drops below altitude 10° 19:32:55 10° 183° (S) 1,559 4.5 -6.8°
Sets 19:34:58 0° 180° (S) 2,426 5.4 -7.1°
